{"data":{"norad_id":63992,"epoch":"2026-05-22T14:04:02.635968Z","epoch_age_seconds":290389,"freshness":"STALE","line1":"1 63992U 25100L   26142.58614162  .00011143  00000+0  51875-3 0  9993","line2":"2 63992  97.3665 216.1083 0011444  46.1259 314.0919 15.20032467 56726","mean_motion":15.20032467,"eccentricity":0.0011444,"inclination_deg":97.3665,"raan_deg":216.1083,"arg_perigee_deg":46.1259,"mean_anomaly_deg":314.0919,"bstar":0.00051875,"rev_number":5672,"period_min":94.734818582003,"perigee_km":497.86467644869,"apogee_km":513.62050005028,"semimajor_km":6883.8795882495,"source":"CELESTRAK","updated_at":"2026-05-25T13:38:04.150086Z"}}